Погода Кокпекты

Погода Кокпекты : погода сейчас, прогноз погоды и архив. Всё, что Вы хотите узнать о погоде Кокпекты!

Поиск расширенной информации на нашем сайте:

Полезная информация: Беременные фотосессии ню подробно.

Другие новости

Новости СМИ2

Главная страница сайта

Новости сайта

03.07.2017

Напоминаем, что на нашем специализированном сайте Метеоцентр.Азия вы можете получить высокодетализированные автоматические прогнозы погоды по пунктам России, СНГ и мира в авиационном формате (включающие направление и скорость ветра, видимость, явления погоды, количество и форму облачности, нижнюю и верхнюю границу облачности).

Рекомендуем: Негабарит заказ трала заказ трала.

Погода Кокпекты - сегодня

Время (UTC), дата Ветер
(°,м/с) 
Видим.   Явления Облачность Т
(°С)
Тd
(°С)
f(%) Тe
(°С)
Pmin
(гПа)
dP
(гПа)
Po
(мм)
O2
(г/м3)
Тmin Tmax R s Состояние
почвы
18 14.10.17 тихо ()   н/о    ясно 
-2 -6 74 -2  1023.3  -0.2  720  293    +15.5       
21 14.10.17 тихо ()   н/о    ясно 
-3.5 -7 77 -4  1023.6  720  295           
00 15.10.17 тихо ()   н/о    3/0 верхняя 
[Ci fib]
-4 -7.3 78 -4  1023.5  -0.2  720  295           
03 15.10.17 тихо ()   20000 м    5/0 верхняя 
[Ci fib]
+2.7 -3 66 +3  1021.6  -0.3  720  287  -4        сухая 
06 15.10.17 170 (Ю) 20000 м    8/0 средняя, верхняя 
[Ac trans|Ci fib]
+12.5 +1.5 47 +12  1019.7  0.3  720  277  -4         
09 15.10.17 180 (Ю) 20000 м    9/5 600 м кучево-дожд., средняя 
[Cb calv|Ac trans]
+14.7 +1.8 42 +14  1018.1  -1  719  275           
12 15.10.17 180 (Ю) 20000 м    9/9 600 м кучево-дожд. 
[Cb calv]
+12.8 +3.9 55 +13  1018.8  0.3  719  276           
15 15.10.17 тихо ()   н/о    9/9 600 м кучево-дожд. 
[Cb calv]
+9.4 +3.5 67 +9  1019.8  0.2  719  280    +15.2       
18 15.10.17 280 (З) н/о  слаб. ливневой дождь  10/10 600 м кучево-дожд. 
[Cb calv]
+8.2 +4.4 77 +9  1020.2  0.1  720  281    +15.2       
21 15.10.17 тихо ()   н/о  {ливн. осадки}  9/9 600 м кучево-дожд. 
[Cb calv]
+7.1 +4.9 86 +7  1019.3  -1  719  281           
00 16.10.17 тихо ()   н/о  {ливн. осадки}  8/6 600 м кучево-дожд., средняя 
[Cb calv|Ac trans]
+6.4 +4.6 88 +6  1019.3  -0.2  719  282           
03 16.10.17 тихо ()   20000 м    8/4 600 м кучево-дожд., средняя 
[Cb calv|Ac trans]
+7 +2.8 75 +7  1009.3  0.7  712  279  +6.4       
06 16.10.17 тихо ()   20000 м    5/0 средняя 
[Ac trans]
+15.2 +6.6 56 +15  1009.7  2.1  713  271  +6.4       
09 16.10.17 тихо ()   20000 м    ясно 
+17 +4.9 45 +17  1011.1  1.7  715  270           
12 16.10.17 тихо ()   20000 м    ясно 
+14.5 +6.9 60 +15  1013.7  1.9  716  273           
15 16.10.17 тихо ()   н/о    ясно 
+10.1 +4.4 68 +10  1016.4  1.7  717  278    +17.6       
18 16.10.17 тихо ()   н/о    ясно 
+5.6 +1.4 74 +6  1019.3  1.7  719  283    +17.6       
21 16.10.17 тихо ()   н/о    ясно 
+4 +0.7 79 +4  1021  1.3  719  286           
00 17.10.17 тихо ()   н/о    3/0 средняя 
[Ac trans]
+2.3 -0.7 81 +2  1021  -0.4  719  287           
03 17.10.17 тихо ()   20000 м    8/4 600 м кучево-дожд., средняя 
[Cb calv|Ac trans]
+5.4 +0.6 71 +5  1021  0.7  720  284  +2.3         
06 17.10.17 100 (В) 20000 м    9/0 верхняя 
[Ci sp]
+13.7 +4.6 54 +15  1018.3  -0.8  719  275  +2.3         
09 17.10.17 тихо ()   20000 м    9/0 средняя, верхняя 
[Ac trans|Ci sp]
+15.4 +5.1 50 +15  1016.4  -1.5  718  273           
12 17.10.17 тихо ()   20000 м    9/8 600 м кучево-дожд., средняя 
[Cb calv|Ac trans]
+13.5 +5.9 60 +14  1016.8  718  275           
15 17.10.17 тихо ()   н/о    9/9 600 м кучево-дожд. 
[Cb calv]
+9 +3.3 67 +9  1018  0.2  718  280    +15.8       
18 17.10.17 тихо ()   н/о    9/4 600 м кучево-дожд., средняя 
[Cb calv|Ac trans]
+6.5 +2.2 74 +7  1016.2  -2.2  716  282    +15.8       
Время (UTC), дата Ветер
(°,м/с) 
Видим.   Явления Облачность Т
(°С)
Тd
(°С)
f(%) Тe
(°С)
Pmin
(гПа)
dP
(гПа)
Po
(мм)
O2
(г/м3)
Тmin Tmax R s Состояние
почвы

Для получения пояснительной информации подведите курсор к названию столбца.

ПОГОДА Кокпекты - архив

Всё, что Вы хотите узнать о погоде Кокпекты - удобно и подробно!

Выберите нужную дату (начиная с 1 января 2015* года) и нажмите кнопку "Найти".
Будут отображены архивные сводки погоды по пункту Кокпекты, начиная с указанной даты.


Отображать данные в формате CSV (для использования в таблицах Excel)


Внимание! Наш архив погоды предназначен исключительно для личного некоммерческого использования в познавательных целях. Если Вам необходимы официальные справки о состоянии погоды (для производственных, юридических, коммерческих и т.п. целей), обращайтесь в органы Росгидромета.

*Примечание: данная дата относится к архиву по метеостанциям СССР (Россия, СНГ, Балтия).
Архив по метеостанциям Зарубежной Европы и Азии (кроме Китая) хранится 10 дней, по другим регионам земного шара (Китай, Африка, Америка, Австралия, Океания) - 1 день.

Кокпекты - район местоположения метеостанции


Название, широта, долгота, высота метеостанции:
Кокпекты 48.8°ш. 82.4°д. 512 м над ур. моря [Казахстан]

Дополнительная информация

В oтличие oт бoльшинства пoгoдных сайтoв мы публикуем пoдрoбную метеoинфoрмацию в детальнoм прoфессиoнальнoм фoрмате.

Характеристики температуры и влажнoсти вoздуха измеряются на высoте 2 м в тени вдали oт зданий и деревьев.
Скoрoсть ветра измеряется на высoте 10 м (на урoвне рoста челoвека скoрoсть ветра ниже в 1.5-2 раза). Если метеoстанция нахoдится в гoрoде или в лесу, тo скoрoсть ветра занижена на 2-4 м/с пo сравнению с oткрытым местoм. Скoрoсть ветра над акватoриями крупных рек и oзёр, а также на вершинах хoлмoв на 2-5 м/с выше, чем в oбычных услoвиях.
Атмoсфернoе давление в разных тoчках местнoсти мoжет значительнo oтличаться oт давления на метеoстанции, в зависимoсти oт услoвий рельефа (при пoдъёме на 10 м давление пoнижается примернo на 1 мм рт.ст.).